Time,TemperatureF,DewpointF,PressureIn,WindDirection,WindDirectionDegrees,WindSpeedMPH,WindSpeedGustMPH,Humidity,HourlyPrecipIn,Conditions,Clouds,dailyrainin,SoftwareType,DateUTC
2013-06-23 00:00:00,62.1,60.7,30.01,NNW,330,0.0,0.0,95,0.00,,---,0.00,VWS V14.01,2013-06-23 04:00:00,
2013-06-23 00:01:00,61.6,60.2,30.02,NNW,330,0.0,0.0,95,0.00,,---,0.00,VWS V14.01,2013-06-23 04:01:00,
2013-06-23 00:02:00,61.6,60.2,30.02,NNW,330,0.0,0.0,95,0.00,,---,0.00,VWS V14.01,2013-06-23 04:02:00,
2013-06-23 00:07:00,61.6,60.2,30.02,NNW,330,0.0,0.0,95,0.00,,---,0.00,VWS V14.01,2013-06-23 04:07:00,
2013-06-23 00:12:00,61.6,60.2,30.02,NNW,330,0.0,0.0,95,0.00,,---,0.00,VWS V14.01,2013-06-23 04:12:00,
2013-06-23 00:17:00,61.5,60.1,30.02,NNW,330,0.0,0.0,95,0.00,,---,0.00,VWS V14.01,2013-06-23 04:17:00,
2013-06-23 00:22:00,61.3,59.9,30.02,NNW,330,0.0,0.0,95,0.00,,---,0.00,VWS V14.01,2013-06-23 04:22:00,
2013-06-23 00:27:00,61.3,59.9,30.02,NNW,330,0.0,0.0,95,0.00,,---,0.00,VWS V14.01,2013-06-23 04:27:00,
2013-06-23 00:30:00,61.5,60.1,30.02,NNW,330,0.0,0.0,95,0.00,,---,0.00,VWS V14.01,2013-06-23 04:30:00,
2013-06-23 00:32:00,61.0,59.6,30.02,NNW,330,0.0,0.0,95,0.00,,---,0.00,VWS V14.01,2013-06-23 04:32:00,
2013-06-23 00:37:00,60.5,59.1,30.02,NNW,330,0.0,0.0,95,0.00,,---,0.00,VWS V14.01,2013-06-23 04:37:00,
2013-06-23 00:42:00,60.5,59.1,30.02,NNW,330,0.0,0.0,95,0.00,,---,0.00,VWS V14.01,2013-06-23 04:42:00,
2013-06-23 00:47:00,60.5,59.1,30.00,NNW,330,0.0,0.0,95,0.00,,---,0.00,VWS V14.01,2013-06-23 04:47:00,
2013-06-23 00:52:00,60.5,59.1,30.00,NNW,330,0.0,0.0,95,0.00,,---,0.00,VWS V14.01,2013-06-23 04:52:00,
2013-06-23 00:57:00,60.4,59.0,30.00,NNW,330,0.0,0.0,95,0.00,,---,0.00,VWS V14.01,2013-06-23 04:57:00,
2013-06-23 01:00:00,61.6,60.2,30.02,NNW,330,0.0,0.0,95,0.00,,---,0.00,VWS V14.01,2013-06-23 05:00:00,
2013-06-23 01:02:00,60.2,58.8,29.99,NE,42,0.0,0.0,95,0.00,,---,0.00,VWS V14.01,2013-06-23 05:02:00,
2013-06-23 01:07:00,60.5,59.1,29.99,NE,42,0.0,0.0,95,0.00,,---,0.00,VWS V14.01,2013-06-23 05:07:00,
2013-06-23 01:12:00,61.0,59.6,29.99,NE,42,0.0,0.0,95,0.00,,---,0.00,VWS V14.01,2013-06-23 05:12:00,
2013-06-23 01:17:00,61.2,59.8,29.98,NE,42,0.0,0.0,95,0.00,,---,0.00,VWS V14.01,2013-06-23 05:17:00,
2013-06-23 01:22:00,61.2,59.8,29.98,NE,42,0.0,0.0,95,0.00,,---,0.00,VWS V14.01,2013-06-23 05:22:00,
2013-06-23 01:27:00,61.0,59.6,29.98,NE,42,0.0,0.0,95,0.00,,---,0.00,VWS V14.01,2013-06-23 05:27:00,
2013-06-23 01:30:00,61.2,59.8,30.02,NNW,330,0.0,0.0,95,0.00,,---,0.00,VWS V14.01,2013-06-23 05:30:00,
2013-06-23 01:32:00,61.3,59.9,29.98,NE,42,0.0,0.0,95,0.00,,---,0.00,VWS V14.01,2013-06-23 05:32:00,
2013-06-23 01:37:00,61.5,60.1,29.98,NE,42,0.0,0.0,95,0.00,,---,0.00,VWS V14.01,2013-06-23 05:37:00,
2013-06-23 01:42:00,61.6,60.2,29.98,NE,42,0.0,0.0,95,0.00,,---,0.00,VWS V14.01,2013-06-23 05:42:00,
2013-06-23 01:47:00,61.6,60.2,29.98,NE,42,0.0,1.0,95,0.00,,---,0.00,VWS V14.01,2013-06-23 05:47:00,
2013-06-23 01:52:00,61.5,60.1,29.98,NE,42,0.0,1.0,95,0.00,,---,0.00,VWS V14.01,2013-06-23 05:52:00,
2013-06-23 01:57:00,61.5,60.1,29.98,NE,49,0.0,1.0,95,0.00,,---,0.00,VWS V14.01,2013-06-23 05:57:00,
2013-06-23 02:00:00,60.2,58.8,29.99,NE,42,0.0,2.0,95,0.00,,---,0.00,VWS V14.01,2013-06-23 06:00:00,
2013-06-23 02:02:00,61.5,60.1,29.98,NE,49,0.0,0.0,95,0.00,,---,0.00,VWS V14.01,2013-06-23 06:02:00,
2013-06-23 02:07:00,61.5,60.1,29.98,NE,49,0.0,0.0,95,0.00,,---,0.00,VWS V14.01,2013-06-23 06:07:00,
2013-06-23 02:12:00,61.6,60.2,29.98,NE,49,0.0,1.0,95,0.00,,---,0.00,VWS V14.01,2013-06-23 06:12:00,
2013-06-23 02:17:00,61.6,60.2,29.98,NE,49,0.0,1.0,95,0.00,,---,0.00,VWS V14.01,2013-06-23 06:17:00,
2013-06-23 02:22:00,61.6,60.2,29.98,NE,49,0.0,1.0,95,0.00,,---,0.00,VWS V14.01,2013-06-23 06:22:00,
2013-06-23 02:27:00,61.8,60.4,29.98,NE,49,0.0,1.0,95,0.00,,---,0.00,VWS V14.01,2013-06-23 06:27:00,
2013-06-23 02:30:00,61.2,59.8,29.98,NE,42,0.0,0.0,95,0.00,,---,0.00,VWS V14.01,2013-06-23 06:30:00,
2013-06-23 02:32:00,61.8,60.4,29.97,NE,49,0.0,1.0,95,0.00,,---,0.00,VWS V14.01,2013-06-23 06:32:00,
2013-06-23 02:37:00,62.0,60.6,29.97,NE,49,1.0,1.0,95,0.00,,---,0.00,VWS V14.01,2013-06-23 06:37:00,
2013-06-23 02:42:00,62.1,60.7,29.97,ESE,110,0.0,1.0,95,0.00,,---,0.00,VWS V14.01,2013-06-23 06:42:00,
2013-06-23 02:47:00,62.1,60.7,29.97,ESE,110,0.0,1.0,95,0.00,,---,0.00,VWS V14.01,2013-06-23 06:47:00,
2013-06-23 02:52:00,62.1,60.7,29.97,ESE,121,0.0,1.0,95,0.00,,---,0.00,VWS V14.01,2013-06-23 06:52:00,
2013-06-23 02:57:00,62.3,60.8,29.97,SSE,154,0.0,2.0,95,0.00,,---,0.00,VWS V14.01,2013-06-23 06:57:00,
2013-06-23 03:00:00,61.5,60.1,29.98,NE,49,0.0,1.0,95,0.00,,---,0.00,VWS V14.01,2013-06-23 07:00:00,
2013-06-23 03:02:00,62.4,61.0,29.97,SSE,154,0.0,0.0,95,0.00,,---,0.00,VWS V14.01,2013-06-23 07:02:00,
2013-06-23 03:07:00,62.6,61.2,29.97,SSE,154,0.0,0.0,95,0.00,,---,0.00,VWS V14.01,2013-06-23 07:07:00,
2013-06-23 03:12:00,62.7,61.2,29.97,SE,143,0.0,1.0,95,0.00,,---,0.00,VWS V14.01,2013-06-23 07:12:00,
2013-06-23 03:17:00,63.2,61.8,29.97,SSW,213,0.0,1.0,95,0.00,,---,0.00,VWS V14.01,2013-06-23 07:17:00,
2013-06-23 03:22:00,63.5,62.0,29.97,ESE,110,1.0,2.0,95,0.00,,---,0.00,VWS V14.01,2013-06-23 07:22:00,
2013-06-23 03:27:00,63.7,62.2,29.97,ESE,112,0.0,2.0,95,0.00,,---,0.00,VWS V14.01,2013-06-23 07:27:00,
2013-06-23 03:30:00,61.8,60.4,29.97,NE,49,0.0,1.0,95,0.00,,---,0.00,VWS V14.01,2013-06-23 07:30:00,
2013-06-23 03:32:00,63.7,62.2,29.98,ESE,112,0.0,0.0,95,0.00,,---,0.00,VWS V14.01,2013-06-23 07:32:00,
2013-06-23 03:37:00,63.7,62.2,29.98,South,189,0.0,1.0,95,0.00,,---,0.00,VWS V14.01,2013-06-23 07:37:00,
2013-06-23 03:42:00,63.7,62.2,29.98,South,189,0.0,1.0,95,0.00,,---,0.00,VWS V14.01,2013-06-23 07:42:00,
2013-06-23 03:47:00,63.7,62.2,29.98,South,189,0.0,2.0,95,0.00,,---,0.00,VWS V14.01,2013-06-23 07:47:00,
2013-06-23 03:52:00,63.9,62.4,29.98,South,181,0.0,2.0,95,0.00,,---,0.00,VWS V14.01,2013-06-23 07:52:00,
2013-06-23 03:57:00,64.0,62.5,29.98,South,175,0.0,2.0,95,0.00,,---,0.00,VWS V14.01,2013-06-23 07:57:00,
2013-06-23 04:00:00,62.4,61.0,29.97,SSE,154,0.0,2.0,95,0.00,,---,0.00,VWS V14.01,2013-06-23 08:00:00,
2013-06-23 04:02:00,64.0,62.5,29.98,South,175,0.0,0.0,95,0.00,,---,0.00,VWS V14.01,2013-06-23 08:02:00,
2013-06-23 04:07:00,64.2,62.7,29.98,South,175,0.0,0.0,95,0.00,,---,0.00,VWS V14.01,2013-06-23 08:07:00,
2013-06-23 04:12:00,64.3,62.8,29.98,South,175,0.0,0.0,95,0.00,,---,0.00,VWS V14.01,2013-06-23 08:12:00,
2013-06-23 04:17:00,64.3,62.8,29.97,South,175,0.0,0.0,95,0.00,,---,0.00,VWS V14.01,2013-06-23 08:17:00,
2013-06-23 04:22:00,64.3,62.8,29.97,SSE,150,0.0,2.0,95,0.00,,---,0.00,VWS V14.01,2013-06-23 08:22:00,
2013-06-23 04:27:00,64.3,62.8,29.97,SE,133,1.0,2.0,95,0.00,,---,0.00,VWS V14.01,2013-06-23 08:27:00,
2013-06-23 04:30:00,63.7,62.2,29.98,ESE,112,0.0,2.0,95,0.00,,---,0.00,VWS V14.01,2013-06-23 08:30:00,
2013-06-23 04:32:00,64.3,62.8,29.94,East,85,0.0,0.0,95,0.00,,---,0.00,VWS V14.01,2013-06-23 08:32:00,
2013-06-23 04:37:00,64.5,63.0,29.94,East,97,0.0,3.0,95,0.00,,---,0.00,VWS V14.01,2013-06-23 08:37:00,
2013-06-23 04:42:00,64.5,63.0,29.94,East,97,0.0,3.0,95,0.00,,---,0.00,VWS V14.01,2013-06-23 08:42:00,
2013-06-23 04:47:00,64.7,63.2,29.93,WSW,254,1.0,5.0,95,0.00,,---,0.00,VWS V14.01,2013-06-23 08:47:00,
2013-06-23 04:52:00,65.0,63.5,29.93,SW,236,0.0,5.0,95,0.00,,---,0.00,VWS V14.01,2013-06-23 08:52:00,
2013-06-23 04:58:00,65.0,63.5,29.93,South,172,0.0,5.0,95,0.00,,---,0.00,VWS V14.01,2013-06-23 08:58:00,
2013-06-23 05:00:00,64.0,62.5,29.98,South,175,0.0,2.0,95,0.00,,---,0.00,VWS V14.01,2013-06-23 09:00:00,
2013-06-23 05:03:00,64.8,63.3,29.94,South,179,1.0,1.0,95,0.00,,---,0.00,VWS V14.01,2013-06-23 09:03:00,
2013-06-23 05:08:00,65.0,63.5,29.94,ENE,78,0.0,3.0,95,0.00,,---,0.00,VWS V14.01,2013-06-23 09:08:00,
2013-06-23 05:13:00,65.0,63.5,29.94,SE,133,0.0,3.0,95,0.00,,---,0.00,VWS V14.01,2013-06-23 09:13:00,
2013-06-23 05:18:00,65.0,63.5,29.93,SE,141,0.0,3.0,95,0.00,,---,0.00,VWS V14.01,2013-06-23 09:18:00,
2013-06-23 05:23:00,65.0,63.5,29.93,SE,128,0.0,3.0,95,0.00,,---,0.00,VWS V14.01,2013-06-23 09:23:00,
2013-06-23 05:28:00,65.0,63.5,29.93,ESE,121,0.0,3.0,95,0.00,,---,0.00,VWS V14.01,2013-06-23 09:28:00,
2013-06-23 05:30:00,64.3,62.8,29.94,East,85,0.0,2.0,95,0.00,,---,0.00,VWS V14.01,2013-06-23 09:30:00,
2013-06-23 05:33:00,65.0,63.5,29.93,SW,233,0.0,0.0,95,0.00,,---,0.00,VWS V14.01,2013-06-23 09:33:00,
2013-06-23 05:38:00,65.2,63.7,29.93,SE,145,2.0,4.0,95,0.00,,---,0.00,VWS V14.01,2013-06-23 09:38:00,
2013-06-23 05:43:00,65.3,63.8,29.93,ESE,106,1.0,4.0,95,0.00,,---,0.00,VWS V14.01,2013-06-23 09:43:00,
2013-06-23 05:48:00,65.5,64.0,29.92,SSE,158,0.0,4.0,95,0.00,,---,0.00,VWS V14.01,2013-06-23 09:48:00,
2013-06-23 05:53:00,65.6,64.1,29.92,ESE,103,0.0,4.0,95,0.00,,---,0.00,VWS V14.01,2013-06-23 09:53:00,
2013-06-23 05:58:00,65.6,64.1,29.92,South,176,1.0,4.0,95,0.00,,---,0.00,VWS V14.01,2013-06-23 09:58:00,
2013-06-23 06:00:00,65.0,63.5,29.94,South,174,0.0,5.0,95,0.00,,---,0.00,VWS V14.01,2013-06-23 10:00:00,
2013-06-23 06:03:00,65.8,64.3,29.92,SE,137,0.0,2.0,95,0.00,,---,0.00,VWS V14.01,2013-06-23 10:03:00,
2013-06-23 06:08:00,65.8,64.3,29.92,South,174,0.0,2.0,95,0.00,,---,0.00,VWS V14.01,2013-06-23 10:08:00,
2013-06-23 06:13:00,66.0,64.5,29.92,ESE,109,0.0,4.0,95,0.00,,---,0.00,VWS V14.01,2013-06-23 10:13:00,
2013-06-23 06:18:00,66.0,64.5,29.93,ESE,121,0.0,4.0,95,0.00,,---,0.00,VWS V14.01,2013-06-23 10:18:00,
2013-06-23 06:23:00,66.0,64.5,29.93,ESE,123,0.0,4.0,95,0.00,,---,0.00,VWS V14.01,2013-06-23 10:23:00,
2013-06-23 06:28:00,66.1,64.6,29.93,ESE,104,0.0,4.0,95,0.00,,---,0.00,VWS V14.01,2013-06-23 10:28:00,
2013-06-23 06:30:00,65.0,63.5,29.93,SW,226,0.0,7.0,95,0.00,,---,0.00,VWS V14.01,2013-06-23 10:30:00,
2013-06-23 06:33:00,66.1,64.6,29.92,ESE,109,2.0,3.0,95,0.00,,---,0.00,VWS V14.01,2013-06-23 10:33:00,
2013-06-23 06:38:00,66.1,64.6,29.92,ESE,112,0.0,3.0,95,0.00,,---,0.00,VWS V14.01,2013-06-23 10:38:00,
2013-06-23 06:43:00,66.3,64.8,29.92,ESE,110,0.0,3.0,95,0.00,,---,0.00,VWS V14.01,2013-06-23 10:43:00,
2013-06-23 06:48:00,66.3,64.8,29.92,South,175,3.0,5.0,95,0.00,,---,0.00,VWS V14.01,2013-06-23 10:48:00,
2013-06-23 06:53:00,66.4,64.9,29.92,NE,48,1.0,5.0,95,0.00,,---,0.00,VWS V14.01,2013-06-23 10:53:00,
2013-06-23 06:58:00,66.8,65.3,29.92,SE,124,1.0,5.0,95,0.00,,---,0.00,VWS V14.01,2013-06-23 10:58:00,
2013-06-23 07:00:00,65.8,64.3,29.92,West,260,1.0,4.0,95,0.00,,---,0.00,VWS V14.01,2013-06-23 11:00:00,
2013-06-23 07:03:00,67.1,65.6,29.91,SE,134,0.0,2.0,95,0.00,,---,0.00,VWS V14.01,2013-06-23 11:03:00,
2013-06-23 07:08:00,67.6,66.1,29.91,SE,141,0.0,3.0,95,0.00,,---,0.00,VWS V14.01,2013-06-23 11:08:00,
2013-06-23 07:13:00,68.1,66.3,29.91,SSW,212,1.0,5.0,94,0.00,,---,0.00,VWS V14.01,2013-06-23 11:13:00,
2013-06-23 07:18:00,68.4,66.3,29.93,West,272,0.0,5.0,93,0.00,,---,0.00,VWS V14.01,2013-06-23 11:18:00,
2013-06-23 07:23:00,68.9,66.2,29.93,SE,141,0.0,5.0,91,0.00,,---,0.00,VWS V14.01,2013-06-23 11:23:00,
2013-06-23 07:28:00,69.4,66.3,29.93,ESE,102,0.0,5.0,90,0.00,,---,0.00,VWS V14.01,2013-06-23 11:28:00,
2013-06-23 07:30:00,66.1,64.6,29.92,ESE,103,2.0,6.0,95,0.00,,---,0.00,VWS V14.01,2013-06-23 11:30:00,
2013-06-23 07:33:00,69.8,66.7,29.92,ESE,110,1.0,3.0,90,0.00,,---,0.00,VWS V14.01,2013-06-23 11:33:00,
2013-06-23 07:38:00,70.1,66.4,29.92,SE,137,1.0,4.0,88,0.00,,---,0.00,VWS V14.01,2013-06-23 11:38:00,
2013-06-23 07:44:00,70.4,66.7,29.92,ESE,109,0.0,4.0,88,0.00,,---,0.00,VWS V14.01,2013-06-23 11:44:00,
2013-06-23 07:49:00,70.8,67.1,29.92,SSE,152,0.0,5.0,88,0.00,,---,0.00,VWS V14.01,2013-06-23 11:49:00,
2013-06-23 07:54:00,71.1,66.7,29.92,SSE,152,0.0,5.0,86,0.00,,---,0.00,VWS V14.01,2013-06-23 11:54:00,
2013-06-23 07:59:00,71.3,66.6,29.92,SE,134,1.0,6.0,85,0.00,,---,0.00,VWS V14.01,2013-06-23 11:59:00,
2013-06-23 08:00:00,66.9,65.4,29.91,ESE,102,1.0,5.0,95,0.00,,---,0.00,VWS V14.01,2013-06-23 12:00:00,
2013-06-23 08:04:00,71.6,67.2,29.92,SSE,158,0.0,1.0,86,0.00,,---,0.00,VWS V14.01,2013-06-23 12:04:00,
2013-06-23 08:09:00,71.6,66.9,29.92,SSE,158,0.0,1.0,85,0.00,,---,0.00,VWS V14.01,2013-06-23 12:09:00,
2013-06-23 08:14:00,71.5,66.8,29.92,SSE,164,0.0,2.0,85,0.00,,---,0.00,VWS V14.01,2013-06-23 12:14:00,
2013-06-23 08:19:00,71.3,66.6,29.93,SSE,157,1.0,2.0,85,0.00,,---,0.00,VWS V14.01,2013-06-23 12:19:00,
2013-06-23 08:24:00,70.9,66.5,29.93,East,90,0.0,5.0,86,0.00,,---,0.00,VWS V14.01,2013-06-23 12:24:00,
2013-06-23 08:29:00,70.8,66.7,29.93,SW,230,3.0,5.0,87,0.00,,---,0.00,VWS V14.01,2013-06-23 12:29:00,
2013-06-23 08:30:00,69.6,66.5,29.92,SE,127,3.0,5.0,90,0.00,,---,0.00,VWS V14.01,2013-06-23 12:30:00,
2013-06-23 08:34:00,70.6,66.6,29.94,SSE,162,0.0,7.0,87,0.00,,---,0.00,VWS V14.01,2013-06-23 12:34:00,
2013-06-23 08:39:00,70.4,66.7,29.94,SSE,150,2.0,7.0,88,0.00,,---,0.00,VWS V14.01,2013-06-23 12:39:00,
2013-06-23 08:44:00,70.4,67.0,29.94,SSE,164,3.0,8.0,89,0.00,,---,0.00,VWS V14.01,2013-06-23 12:44:00,
2013-06-23 08:49:00,70.4,66.7,29.95,SSW,198,5.0,8.0,88,0.00,,---,0.00,VWS V14.01,2013-06-23 12:49:00,
2013-06-23 08:54:00,70.9,67.2,29.95,South,185,0.0,8.0,88,0.00,,---,0.00,VWS V14.01,2013-06-23 12:54:00,
2013-06-23 08:59:00,71.3,67.2,29.95,SE,134,1.0,8.0,87,0.00,,---,0.00,VWS V14.01,2013-06-23 12:59:00,
2013-06-23 09:00:00,71.5,67.1,29.92,SSE,158,0.0,6.0,86,0.00,,---,0.00,VWS V14.01,2013-06-23 13:00:00,
2013-06-23 09:04:00,71.5,67.1,29.95,SSE,154,2.0,3.0,86,0.00,,---,0.00,VWS V14.01,2013-06-23 13:04:00,
2013-06-23 09:09:00,71.6,67.5,29.95,WNW,284,1.0,3.0,87,0.00,,---,0.00,VWS V14.01,2013-06-23 13:09:00,
2013-06-23 09:14:00,72.0,67.6,29.95,South,186,4.0,4.0,86,0.00,,---,0.00,VWS V14.01,2013-06-23 13:14:00,
2013-06-23 09:19:00,72.1,67.3,29.95,West,274,3.0,7.0,85,0.00,,---,0.00,VWS V14.01,2013-06-23 13:19:00,
2013-06-23 09:24:00,72.5,67.7,29.95,South,172,2.0,11.0,85,0.00,,---,0.00,VWS V14.01,2013-06-23 13:24:00,
2013-06-23 09:29:00,73.0,67.9,29.95,SW,224,0.0,11.0,84,0.00,,---,0.00,VWS V14.01,2013-06-23 13:29:00,
2013-06-23 09:30:00,70.8,66.7,29.94,SE,144,2.0,5.0,87,0.00,,---,0.00,VWS V14.01,2013-06-23 13:30:00,
2013-06-23 09:34:00,73.7,67.9,29.95,WSW,243,6.0,7.0,82,0.00,,---,0.00,VWS V14.01,2013-06-23 13:34:00,
2013-06-23 09:39:00,74.0,67.4,29.95,South,191,2.0,7.0,80,0.00,,---,0.00,VWS V14.01,2013-06-23 13:39:00,
2013-06-23 09:44:00,73.7,67.5,29.95,West,280,3.0,7.0,81,0.00,,---,0.00,VWS V14.01,2013-06-23 13:44:00,
2013-06-23 09:49:00,73.9,67.7,29.96,West,268,0.0,7.0,81,0.00,,---,0.00,VWS V14.01,2013-06-23 13:49:00,
2013-06-23 09:54:00,74.0,67.4,29.96,SW,227,7.0,7.0,80,0.00,,---,0.00,VWS V14.01,2013-06-23 13:54:00,
2013-06-23 09:59:00,73.5,67.3,29.96,SE,126,1.0,8.0,81,0.00,,---,0.00,VWS V14.01,2013-06-23 13:59:00,
2013-06-23 10:00:00,71.3,67.2,29.95,SE,141,0.0,8.0,87,0.00,,---,0.00,VWS V14.01,2013-06-23 14:00:00,
2013-06-23 10:04:00,73.0,66.8,29.97,SSE,168,3.0,7.0,81,0.00,,---,0.00,VWS V14.01,2013-06-23 14:04:00,
2013-06-23 10:09:00,73.3,66.8,29.97,SSW,196,2.0,8.0,80,0.00,,---,0.00,VWS V14.01,2013-06-23 14:09:00,
2013-06-23 10:14:00,73.9,67.0,29.97,NW,318,1.0,8.0,79,0.00,,---,0.00,VWS V14.01,2013-06-23 14:14:00,
2013-06-23 10:19:00,74.2,67.3,29.96,WSW,253,4.0,8.0,79,0.00,,---,0.00,VWS V14.01,2013-06-23 14:19:00,
2013-06-23 10:24:00,74.0,67.1,29.96,NW,312,2.0,8.0,79,0.00,,---,0.00,VWS V14.01,2013-06-23 14:24:00,
2013-06-23 10:29:00,73.0,66.5,29.96,NNW,332,6.0,8.0,80,0.00,,---,0.00,VWS V14.01,2013-06-23 14:29:00,
2013-06-23 10:30:00,73.3,68.2,29.95,South,182,0.0,11.0,84,0.00,,---,0.00,VWS V14.01,2013-06-23 14:30:00,
2013-06-23 10:34:00,72.1,67.0,29.98,NNW,332,0.0,2.0,84,0.00,,---,0.00,VWS V14.01,2013-06-23 14:34:00,
2013-06-23 10:39:00,72.0,66.9,29.98,South,181,1.0,5.0,84,0.00,,---,0.00,VWS V14.01,2013-06-23 14:39:00,
2013-06-23 10:44:00,72.0,66.9,29.98,SW,217,2.0,5.0,84,0.00,,---,0.00,VWS V14.01,2013-06-23 14:44:00,
2013-06-23 10:49:00,72.0,66.9,29.98,SW,220,0.0,5.0,84,0.00,,---,0.00,VWS V14.01,2013-06-23 14:49:00,
2013-06-23 10:54:00,72.3,66.8,29.98,SW,234,2.0,8.0,83,0.00,,---,0.00,VWS V14.01,2013-06-23 14:54:00,
2013-06-23 10:59:00,72.8,67.0,29.99,WSW,258,2.0,8.0,82,0.00,,---,0.00,VWS V14.01,2013-06-23 14:59:00,
2013-06-23 11:00:00,73.5,67.3,29.97,East,97,1.0,8.0,81,0.00,,---,0.00,VWS V14.01,2013-06-23 15:00:00,
2013-06-23 11:04:00,73.3,66.8,29.99,SE,128,0.0,5.0,80,0.00,,---,0.00,VWS V14.01,2013-06-23 15:04:00,
2013-06-23 11:09:00,73.3,66.8,29.99,ESE,112,1.0,7.0,80,0.00,,---,0.00,VWS V14.01,2013-06-23 15:09:00,
2013-06-23 11:14:00,73.5,66.2,29.98,South,185,0.0,8.0,78,0.00,,---,0.00,VWS V14.01,2013-06-23 15:14:00,
2013-06-23 11:19:00,73.7,66.8,29.98,West,272,2.0,8.0,79,0.00,,---,0.00,VWS V14.01,2013-06-23 15:19:00,
2013-06-23 11:25:00,73.3,66.4,29.98,SSW,198,1.0,8.0,79,0.00,,---,0.00,VWS V14.01,2013-06-23 15:25:00,
2013-06-23 11:30:00,73.0,66.1,29.99,ESE,113,2.0,8.0,79,0.00,,---,0.00,VWS V14.01,2013-06-23 15:30:00,
2013-06-23 11:35:00,72.8,65.9,29.99,SW,236,1.0,5.0,79,0.00,,---,0.00,VWS V14.01,2013-06-23 15:35:00,
2013-06-23 11:40:00,72.7,66.2,29.99,SW,229,0.0,5.0,80,0.00,,---,0.00,VWS V14.01,2013-06-23 15:40:00,
2013-06-23 11:45:00,72.7,66.2,29.99,SW,230,4.0,5.0,80,0.00,,---,0.00,VWS V14.01,2013-06-23 15:45:00,
2013-06-23 11:50:00,72.7,66.2,29.99,SSW,212,1.0,5.0,80,0.00,,---,0.00,VWS V14.01,2013-06-23 15:50:00,
2013-06-23 11:55:00,72.8,66.3,29.99,SW,219,0.0,5.0,80,0.00,,---,0.00,VWS V14.01,2013-06-23 15:55:00,
2013-06-23 12:00:00,72.8,66.3,29.99,SSE,150,1.0,5.0,80,0.00,,---,0.00,VWS V14.01,2013-06-23 16:00:00,
2013-06-23 12:05:00,73.3,66.8,29.99,SSW,213,3.0,3.0,80,0.00,,---,0.00,VWS V14.01,2013-06-23 16:05:00,
2013-06-23 12:10:00,73.7,67.2,29.99,SSW,203,2.0,3.0,80,0.00,,---,0.00,VWS V14.01,2013-06-23 16:10:00,
2013-06-23 12:15:00,73.9,66.2,29.99,SE,138,5.0,6.0,77,0.00,,---,0.00,VWS V14.01,2013-06-23 16:15:00,
2013-06-23 12:20:00,74.0,66.7,29.99,SW,229,1.0,6.0,78,0.00,,---,0.00,VWS V14.01,2013-06-23 16:20:00,
2013-06-23 12:25:00,74.0,66.3,29.99,South,182,0.0,6.0,77,0.00,,---,0.00,VWS V14.01,2013-06-23 16:25:00,
2013-06-23 12:30:00,74.2,66.5,29.98,NNW,339,6.0,7.0,77,0.00,,---,0.00,VWS V14.01,2013-06-23 16:30:00,
2013-06-23 12:35:00,74.6,66.9,29.98,SSE,150,2.0,8.0,77,0.00,,---,0.00,VWS V14.01,2013-06-23 16:35:00,
2013-06-23 12:40:00,74.7,67.0,29.98,WSW,250,7.0,8.0,77,0.00,,---,0.00,VWS V14.01,2013-06-23 16:40:00,
2013-06-23 12:45:00,75.1,67.0,29.98,ESE,121,0.0,8.0,76,0.00,,---,0.00,VWS V14.01,2013-06-23 16:45:00,
2013-06-23 12:50:00,75.6,67.1,29.98,SE,145,1.0,8.0,75,0.00,,---,0.00,VWS V14.01,2013-06-23 16:50:00,
2013-06-23 12:55:00,75.8,66.5,29.98,ESE,113,2.0,8.0,73,0.00,,---,0.00,VWS V14.01,2013-06-23 16:55:00,
2013-06-23 12:57:00,76.3,67.4,29.98,SE,138,2.0,8.0,74,0.00,,---,0.00,VWS V14.01,2013-06-23 16:57:00,
2013-06-23 13:00:00,73.2,66.7,29.99,SSE,150,1.0,5.0,80,0.00,,---,0.00,VWS V14.01,2013-06-23 17:00:00,
2013-06-23 13:03:00,77.0,67.3,29.97,East,79,2.0,3.0,72,0.00,,---,0.00,VWS V14.01,2013-06-23 17:03:00,
2013-06-23 13:08:00,77.2,67.5,29.97,South,191,0.0,3.0,72,0.00,,---,0.00,VWS V14.01,2013-06-23 17:08:00,
2013-06-23 13:13:00,77.7,67.6,29.97,WSW,247,1.0,3.0,71,0.00,,---,0.00,VWS V14.01,2013-06-23 17:13:00,
2013-06-23 13:18:00,77.7,66.7,29.97,East,97,5.0,5.0,69,0.00,,---,0.00,VWS V14.01,2013-06-23 17:18:00,
2013-06-23 13:23:00,77.7,66.7,29.97,SW,216,0.0,5.0,69,0.00,,---,0.00,VWS V14.01,2013-06-23 17:23:00,
2013-06-23 13:28:00,77.7,66.7,29.97,SW,216,7.0,7.0,69,0.00,,---,0.00,VWS V14.01,2013-06-23 17:28:00,
2013-06-23 13:30:00,74.2,66.5,29.98,NNW,339,6.0,7.0,77,0.00,,---,0.00,VWS V14.01,2013-06-23 17:30:00,
2013-06-23 13:33:00,77.7,66.7,29.97,South,184,1.0,4.0,69,0.00,,---,0.00,VWS V14.01,2013-06-23 17:33:00,
2013-06-23 13:38:00,79.0,68.0,29.97,ESE,114,2.0,5.0,69,0.00,,---,0.00,VWS V14.01,2013-06-23 17:38:00,
2013-06-23 13:43:00,79.4,66.6,29.97,SE,144,2.0,6.0,65,0.00,,---,0.00,VWS V14.01,2013-06-23 17:43:00,
2013-06-23 13:48:00,79.8,67.4,29.97,WSW,257,1.0,6.0,66,0.00,,---,0.00,VWS V14.01,2013-06-23 17:48:00,
2013-06-23 13:53:00,80.1,67.7,29.97,SSW,203,1.0,7.0,66,0.00,,---,0.00,VWS V14.01,2013-06-23 17:53:00,
2013-06-23 13:58:00,80.3,67.9,29.97,SW,216,2.0,7.0,66,0.00,,---,0.00,VWS V14.01,2013-06-23 17:58:00,
2013-06-23 14:00:00,76.5,67.6,29.97,SSW,206,2.0,8.0,74,0.00,,---,0.00,VWS V14.01,2013-06-23 18:00:00,
2013-06-23 14:03:00,80.5,67.7,29.96,SE,141,6.0,10.0,65,0.00,,---,0.00,VWS V14.01,2013-06-23 18:03:00,
2013-06-23 14:08:00,80.7,67.4,29.96,SW,234,3.0,10.0,64,0.00,,---,0.00,VWS V14.01,2013-06-23 18:08:00,
2013-06-23 14:13:00,80.5,66.8,29.96,ENE,73,2.0,10.0,63,0.00,,---,0.00,VWS V14.01,2013-06-23 18:13:00,
2013-06-23 14:18:00,80.7,66.9,29.95,SSE,168,1.0,11.0,63,0.00,,---,0.00,VWS V14.01,2013-06-23 18:18:00,
2013-06-23 14:23:00,81.1,67.8,29.95,SSE,160,0.0,11.0,64,0.00,,---,0.00,VWS V14.01,2013-06-23 18:23:00,
2013-06-23 14:28:00,81.2,68.3,29.95,SSE,168,5.0,11.0,65,0.00,,---,0.00,VWS V14.01,2013-06-23 18:28:00,
2013-06-23 14:30:00,77.7,66.7,29.97,WSW,240,3.0,7.0,69,0.00,,---,0.00,VWS V14.01,2013-06-23 18:30:00,
2013-06-23 14:33:00,81.2,66.9,29.95,West,260,2.0,7.0,62,0.00,,---,0.00,VWS V14.01,2013-06-23 18:33:00,
2013-06-23 14:38:00,81.2,67.9,29.95,WSW,253,3.0,7.0,64,0.00,,---,0.00,VWS V14.01,2013-06-23 18:38:00,
2013-06-23 14:43:00,81.4,68.1,29.95,SSE,160,3.0,7.0,64,0.00,,---,0.00,VWS V14.01,2013-06-23 18:43:00,
2013-06-23 14:48:00,81.8,68.0,29.95,ESE,103,1.0,7.0,63,0.00,,---,0.00,VWS V14.01,2013-06-23 18:48:00,
2013-06-23 14:53:00,82.4,68.6,29.95,SW,222,2.0,7.0,63,0.00,,---,0.00,VWS V14.01,2013-06-23 18:53:00,
2013-06-23 14:58:00,82.6,67.8,29.95,WSW,248,3.0,7.0,61,0.00,,---,0.00,VWS V14.01,2013-06-23 18:58:00,
2013-06-23 15:00:00,80.3,67.0,29.96,WSW,240,1.0,7.0,64,0.00,,---,0.00,VWS V14.01,2013-06-23 19:00:00,
2013-06-23 15:03:00,82.6,67.8,29.94,SSW,205,1.0,6.0,61,0.00,,---,0.00,VWS V14.01,2013-06-23 19:03:00,
2013-06-23 15:08:00,82.6,67.8,29.94,WSW,243,1.0,6.0,61,0.00,,---,0.00,VWS V14.01,2013-06-23 19:08:00,
2013-06-23 15:13:00,82.8,68.5,29.94,South,188,0.0,7.0,62,0.00,,---,0.00,VWS V14.01,2013-06-23 19:13:00,
2013-06-23 15:18:00,83.4,67.6,29.94,ENE,75,2.0,8.0,59,0.00,,---,0.00,VWS V14.01,2013-06-23 19:18:00,
2013-06-23 15:23:00,83.4,67.6,29.94,SSW,209,6.0,10.0,59,0.00,,---,0.00,VWS V14.01,2013-06-23 19:23:00,
2013-06-23 15:28:00,83.6,68.3,29.94,SW,216,0.0,10.0,60,0.00,,---,0.00,VWS V14.01,2013-06-23 19:28:00,
2013-06-23 15:30:00,81.2,68.3,29.95,SSE,152,4.0,11.0,65,0.00,,---,0.00,VWS V14.01,2013-06-23 19:30:00,
2013-06-23 15:33:00,83.6,67.3,29.93,SSW,206,2.0,6.0,58,0.00,,---,0.00,VWS V14.01,2013-06-23 19:33:00,
2013-06-23 15:38:00,83.6,67.8,29.93,WSW,247,1.0,7.0,59,0.00,,---,0.00,VWS V14.01,2013-06-23 19:38:00,
2013-06-23 15:43:00,83.8,68.0,29.93,ESE,109,0.0,13.0,59,0.00,,---,0.00,VWS V14.01,2013-06-23 19:43:00,
2013-06-23 15:48:00,84.0,67.7,29.93,SSW,202,1.0,13.0,58,0.00,,---,0.00,VWS V14.01,2013-06-23 19:48:00,
2013-06-23 15:53:00,84.1,66.2,29.93,SSE,148,6.0,13.0,55,0.00,,---,0.00,VWS V14.01,2013-06-23 19:53:00,
2013-06-23 15:58:00,84.1,66.7,29.93,ESE,117,1.0,13.0,56,0.00,,---,0.00,VWS V14.01,2013-06-23 19:58:00,
2013-06-23 16:00:00,82.6,67.8,29.94,WSW,248,3.0,7.0,61,0.00,,---,0.00,VWS V14.01,2013-06-23 20:00:00,
2013-06-23 16:03:00,84.3,65.9,29.92,SSW,200,2.0,10.0,54,0.00,,---,0.00,VWS V14.01,2013-06-23 20:03:00,
2013-06-23 16:08:00,84.3,65.3,29.92,SW,234,1.0,11.0,53,0.00,,---,0.00,VWS V14.01,2013-06-23 20:08:00,
2013-06-23 16:13:00,84.5,65.5,29.92,WSW,240,4.0,11.0,53,0.00,,---,0.00,VWS V14.01,2013-06-23 20:13:00,
2013-06-23 16:18:00,84.7,66.8,29.92,West,272,1.0,11.0,55,0.00,,---,0.00,VWS V14.01,2013-06-23 20:18:00,
2013-06-23 16:23:00,85.1,66.6,29.92,SW,230,6.0,11.0,54,0.00,,---,0.00,VWS V14.01,2013-06-23 20:23:00,
2013-06-23 16:28:00,85.1,66.6,29.92,SSW,198,1.0,11.0,54,0.00,,---,0.00,VWS V14.01,2013-06-23 20:28:00,
2013-06-23 16:30:00,83.6,67.8,29.93,SSW,213,6.0,10.0,59,0.00,,---,0.00,VWS V14.01,2013-06-23 20:30:00,
2013-06-23 16:33:00,85.3,66.8,29.91,South,174,2.0,8.0,54,0.00,,---,0.00,VWS V14.01,2013-06-23 20:33:00,
2013-06-23 16:38:00,85.5,66.4,29.91,SE,128,7.0,8.0,53,0.00,,---,0.00,VWS V14.01,2013-06-23 20:38:00,
2013-06-23 16:43:00,85.7,68.7,29.91,SSE,161,2.0,8.0,57,0.00,,---,0.00,VWS V14.01,2013-06-23 20:43:00,
2013-06-23 16:48:00,85.5,67.5,29.90,South,186,10.0,11.0,55,0.00,,---,0.00,VWS V14.01,2013-06-23 20:48:00,
2013-06-23 16:53:00,85.5,66.4,29.90,SSE,165,2.0,11.0,53,0.00,,---,0.00,VWS V14.01,2013-06-23 20:53:00,
2013-06-23 16:59:00,85.5,67.0,29.90,WNW,288,1.0,11.0,54,0.00,,---,0.00,VWS V14.01,2013-06-23 20:59:00,
2013-06-23 17:00:00,84.1,66.2,29.92,ESE,120,3.0,13.0,55,0.00,,---,0.00,VWS V14.01,2013-06-23 21:00:00,
2013-06-23 17:04:00,85.5,68.0,29.90,SE,131,5.0,8.0,56,0.00,,---,0.00,VWS V14.01,2013-06-23 21:04:00,
2013-06-23 17:09:00,85.5,67.5,29.90,SE,137,1.0,8.0,55,0.00,,---,0.00,VWS V14.01,2013-06-23 21:09:00,
2013-06-23 17:14:00,85.1,67.1,29.90,WSW,244,2.0,10.0,55,0.00,,---,0.00,VWS V14.01,2013-06-23 21:14:00,
2013-06-23 17:19:00,84.7,67.3,29.89,SE,126,3.0,11.0,56,0.00,,---,0.00,VWS V14.01,2013-06-23 21:19:00,
2013-06-23 17:24:00,84.7,67.8,29.89,West,268,0.0,11.0,57,0.00,,---,0.00,VWS V14.01,2013-06-23 21:24:00,
2013-06-23 17:29:00,84.9,68.0,29.89,WSW,256,3.0,11.0,57,0.00,,---,0.00,VWS V14.01,2013-06-23 21:29:00,
2013-06-23 17:30:00,85.1,66.1,29.91,South,191,8.0,11.0,53,0.00,,---,0.00,VWS V14.01,2013-06-23 21:30:00,
2013-06-23 17:34:00,84.7,68.8,29.89,SE,145,5.0,6.0,59,0.00,,---,0.00,VWS V14.01,2013-06-23 21:34:00,
2013-06-23 17:35:00,84.5,68.6,29.89,SE,137,2.0,6.0,59,0.00,,---,0.00,VWS V14.01,2013-06-23 21:35:00,
2013-06-23 17:40:00,84.5,68.6,29.89,SSW,195,9.0,10.0,59,0.00,,---,0.00,VWS V14.01,2013-06-23 21:40:00,
2013-06-23 17:45:00,84.9,69.0,29.88,SW,234,0.0,10.0,59,0.00,,---,0.00,VWS V14.01,2013-06-23 21:45:00,
2013-06-23 17:50:00,85.1,69.2,29.88,ENE,76,0.0,11.0,59,0.00,,---,0.00,VWS V14.01,2013-06-23 21:50:00,
2013-06-23 17:55:00,85.5,69.6,29.88,ESE,106,2.0,11.0,59,0.00,,---,0.00,VWS V14.01,2013-06-23 21:55:00,
2013-06-23 18:00:00,85.7,69.7,29.88,SE,130,6.0,11.0,59,0.00,,---,0.00,VWS V14.01,2013-06-23 22:00:00,
2013-06-23 18:05:00,85.5,70.0,29.88,SSW,206,2.0,7.0,60,0.00,,---,0.00,VWS V14.01,2013-06-23 22:05:00,
2013-06-23 18:10:00,85.7,69.2,29.88,SW,222,2.0,7.0,58,0.00,,---,0.00,VWS V14.01,2013-06-23 22:10:00,
2013-06-23 18:15:00,85.9,69.9,29.87,East,80,1.0,7.0,59,0.00,,---,0.00,VWS V14.01,2013-06-23 22:15:00,
2013-06-23 18:20:00,86.1,70.6,29.87,SSW,213,4.0,7.0,60,0.00,,---,0.00,VWS V14.01,2013-06-23 22:20:00,
2013-06-23 18:25:00,86.3,69.8,29.87,East,89,3.0,7.0,58,0.00,,---,0.00,VWS V14.01,2013-06-23 22:25:00,
2013-06-23 18:30:00,86.1,70.1,29.86,SE,126,5.0,7.0,59,0.00,,---,0.00,VWS V14.01,2013-06-23 22:30:00,
2013-06-23 18:35:00,85.9,69.4,29.86,ESE,117,2.0,5.0,58,0.00,,---,0.00,VWS V14.01,2013-06-23 22:35:00,
2013-06-23 18:40:00,85.7,69.7,29.86,East,88,3.0,6.0,59,0.00,,---,0.00,VWS V14.01,2013-06-23 22:40:00,
2013-06-23 18:45:00,85.5,69.1,29.85,SE,124,1.0,6.0,58,0.00,,---,0.00,VWS V14.01,2013-06-23 22:45:00,
2013-06-23 18:50:00,85.5,69.6,29.85,East,99,1.0,6.0,59,0.00,,---,0.00,VWS V14.01,2013-06-23 22:50:00,
2013-06-23 18:55:00,85.7,69.7,29.85,SSE,148,0.0,6.0,59,0.00,,---,0.00,VWS V14.01,2013-06-23 22:55:00,
2013-06-23 19:00:00,85.9,69.9,29.85,SE,130,0.0,6.0,59,0.00,,---,0.00,VWS V14.01,2013-06-23 23:00:00,
2013-06-23 19:05:00,85.9,69.4,29.85,East,99,5.0,5.0,58,0.00,,---,0.00,VWS V14.01,2013-06-23 23:05:00,
2013-06-23 19:10:00,85.9,70.4,29.85,ESE,117,1.0,5.0,60,0.00,,---,0.00,VWS V14.01,2013-06-23 23:10:00,
2013-06-23 19:15:00,85.5,69.6,29.85,South,186,0.0,7.0,59,0.00,,---,0.00,VWS V14.01,2013-06-23 23:15:00,
2013-06-23 19:20:00,85.5,69.6,29.85,SSW,212,1.0,7.0,59,0.00,,---,0.00,VWS V14.01,2013-06-23 23:20:00,
2013-06-23 19:25:00,85.5,69.6,29.85,SSE,151,2.0,7.0,59,0.00,,---,0.00,VWS V14.01,2013-06-23 23:25:00,
2013-06-23 19:30:00,85.3,69.4,29.86,South,191,0.0,0.0,59,0.00,,---,0.00,VWS V14.01,2013-06-23 23:30:00,
2013-06-23 19:35:00,85.3,69.4,29.86,WSW,239,2.0,8.0,59,0.00,,---,0.00,VWS V14.01,2013-06-23 23:35:00,
2013-06-23 19:40:00,85.3,69.8,29.86,SE,134,3.0,8.0,60,0.00,,---,0.00,VWS V14.01,2013-06-23 23:40:00,
2013-06-23 19:46:00,85.3,69.8,29.86,SSW,195,5.0,8.0,60,0.00,,---,0.00,VWS V14.01,2013-06-23 23:46:00,
2013-06-23 19:51:00,85.1,69.7,29.86,SE,134,0.0,10.0,60,0.00,,---,0.00,VWS V14.01,2013-06-23 23:51:00,
2013-06-23 19:56:00,84.9,70.0,29.86,West,264,3.0,10.0,61,0.00,,---,0.00,VWS V14.01,2013-06-23 23:56:00,
2013-06-23 20:00:00,85.9,69.9,29.85,SE,130,0.0,6.0,59,0.00,,---,0.00,VWS V14.01,2013-06-24 00:00:00,
2013-06-23 20:01:00,84.7,69.3,29.86,West,278,0.0,1.0,60,0.00,,---,0.00,VWS V14.01,2013-06-24 00:01:00,
2013-06-23 20:06:00,84.7,69.3,29.86,South,174,1.0,6.0,60,0.00,,---,0.00,VWS V14.01,2013-06-24 00:06:00,
2013-06-23 20:11:00,84.5,69.6,29.86,WSW,257,1.0,6.0,61,0.00,,---,0.00,VWS V14.01,2013-06-24 00:11:00,
2013-06-23 20:16:00,84.5,69.6,29.87,SW,219,3.0,6.0,61,0.00,,---,0.00,VWS V14.01,2013-06-24 00:16:00,
2013-06-23 20:21:00,84.3,69.4,29.87,WSW,239,3.0,6.0,61,0.00,,---,0.00,VWS V14.01,2013-06-24 00:21:00,
2013-06-23 20:26:00,84.1,69.2,29.87,SW,233,1.0,6.0,61,0.00,,---,0.00,VWS V14.01,2013-06-24 00:26:00,
2013-06-23 20:30:00,85.3,69.4,29.86,South,191,0.0,7.0,59,0.00,,---,0.00,VWS V14.01,2013-06-24 00:30:00,
2013-06-23 20:31:00,83.8,69.9,29.88,South,179,0.0,1.0,63,0.00,,---,0.00,VWS V14.01,2013-06-24 00:31:00,
2013-06-23 20:36:00,83.6,69.7,29.88,SSW,196,0.0,3.0,63,0.00,,---,0.00,VWS V14.01,2013-06-24 00:36:00,
2013-06-23 20:41:00,83.4,69.9,29.88,SE,133,1.0,6.0,64,0.00,,---,0.00,VWS V14.01,2013-06-24 00:41:00,
2013-06-23 20:46:00,83.2,69.3,29.88,SW,227,0.0,6.0,63,0.00,,---,0.00,VWS V14.01,2013-06-24 00:46:00,
2013-06-23 20:51:00,82.8,68.9,29.88,East,93,2.0,6.0,63,0.00,,---,0.00,VWS V14.01,2013-06-24 00:51:00,
2013-06-23 20:56:00,82.6,70.1,29.88,ESE,113,1.0,6.0,66,0.00,,---,0.00,VWS V14.01,2013-06-24 00:56:00,
2013-06-23 21:00:00,84.7,69.3,29.86,West,278,1.0,10.0,60,0.00,,---,0.00,VWS V14.01,2013-06-24 01:00:00,
2013-06-23 21:01:00,82.2,70.2,29.89,ESE,121,1.0,1.0,67,0.00,,---,0.00,VWS V14.01,2013-06-24 01:01:00,
2013-06-23 21:06:00,81.8,69.8,29.89,East,93,1.0,3.0,67,0.00,,---,0.00,VWS V14.01,2013-06-24 01:06:00,
2013-06-23 21:11:00,81.4,70.3,29.89,SSW,209,0.0,3.0,69,0.00,,---,0.00,VWS V14.01,2013-06-24 01:11:00,
2013-06-23 21:16:00,81.1,70.0,29.89,SSW,209,0.0,3.0,69,0.00,,---,0.00,VWS V14.01,2013-06-24 01:16:00,
2013-06-23 21:21:00,80.9,69.8,29.89,SSW,209,0.0,3.0,69,0.00,,---,0.00,VWS V14.01,2013-06-24 01:21:00,
2013-06-23 21:26:00,80.5,69.8,29.89,SSW,209,1.0,3.0,70,0.00,,---,0.00,VWS V14.01,2013-06-24 01:26:00,
2013-06-23 21:30:00,83.8,69.9,29.88,South,179,1.0,6.0,63,0.00,,---,0.00,VWS V14.01,2013-06-24 01:30:00,
2013-06-23 21:31:00,80.3,69.6,29.89,South,169,0.0,0.0,70,0.00,,---,0.00,VWS V14.01,2013-06-24 01:31:00,
2013-06-23 21:36:00,80.3,69.2,29.89,SE,128,0.0,3.0,69,0.00,,---,0.00,VWS V14.01,2013-06-24 01:36:00,
2013-06-23 21:41:00,80.1,69.4,29.89,South,178,0.0,3.0,70,0.00,,---,0.00,VWS V14.01,2013-06-24 01:41:00,
2013-06-23 21:46:00,79.8,69.2,29.90,SSW,209,0.0,3.0,70,0.00,,---,0.00,VWS V14.01,2013-06-24 01:46:00,
2013-06-23 21:51:00,79.8,69.2,29.90,South,189,0.0,3.0,70,0.00,,---,0.00,VWS V14.01,2013-06-24 01:51:00,
2013-06-23 21:56:00,79.6,69.0,29.90,East,80,1.0,3.0,70,0.00,,---,0.00,VWS V14.01,2013-06-24 01:56:00,
2013-06-23 22:00:00,82.2,70.2,29.89,ESE,110,0.0,6.0,67,0.00,,---,0.00,VWS V14.01,2013-06-24 02:00:00,
2013-06-23 22:01:00,79.4,68.8,29.90,SSW,192,2.0,3.0,70,0.00,,---,0.00,VWS V14.01,2013-06-24 02:01:00,
2013-06-23 22:06:00,79.2,69.0,29.90,ESE,103,1.0,5.0,71,0.00,,---,0.00,VWS V14.01,2013-06-24 02:06:00,
2013-06-23 22:11:00,79.4,68.3,29.90,SE,140,1.0,6.0,69,0.00,,---,0.00,VWS V14.01,2013-06-24 02:11:00,
2013-06-23 22:16:00,79.6,67.7,29.90,SE,143,0.0,6.0,67,0.00,,---,0.00,VWS V14.01,2013-06-24 02:16:00,
2013-06-23 22:21:00,79.6,67.7,29.90,ENE,61,2.0,6.0,67,0.00,,---,0.00,VWS V14.01,2013-06-24 02:21:00,
2013-06-23 22:26:00,79.6,67.2,29.90,East,97,2.0,8.0,66,0.00,,---,0.00,VWS V14.01,2013-06-24 02:26:00,
2013-06-23 22:30:00,80.3,69.6,29.89,South,169,0.0,3.0,70,0.00,,---,0.00,VWS V14.01,2013-06-24 02:30:00,
2013-06-23 22:31:00,79.6,67.2,29.90,SSE,158,2.0,4.0,66,0.00,,---,0.00,VWS V14.01,2013-06-24 02:31:00,
2013-06-23 22:36:00,79.6,67.2,29.90,SSW,192,2.0,5.0,66,0.00,,---,0.00,VWS V14.01,2013-06-24 02:36:00,
2013-06-23 22:41:00,79.4,67.1,29.90,SW,233,4.0,6.0,66,0.00,,---,0.00,VWS V14.01,2013-06-24 02:41:00,
2013-06-23 22:46:00,79.2,66.9,29.90,South,182,5.0,7.0,66,0.00,,---,0.00,VWS V14.01,2013-06-24 02:46:00,
2013-06-23 22:51:00,79.2,67.3,29.90,East,99,2.0,7.0,67,0.00,,---,0.00,VWS V14.01,2013-06-24 02:51:00,
2013-06-23 22:56:00,79.0,67.1,29.90,ESE,112,0.0,7.0,67,0.00,,---,0.00,VWS V14.01,2013-06-24 02:56:00,
2013-06-23 23:00:00,79.4,68.8,29.90,SE,136,0.0,3.0,70,0.00,,---,0.00,VWS V14.01,2013-06-24 03:00:00,
2013-06-23 23:01:00,78.8,66.9,29.90,ESE,116,7.0,7.0,67,0.00,,---,0.00,VWS V14.01,2013-06-24 03:01:00,
2013-06-23 23:06:00,78.6,66.7,29.90,SE,133,0.0,7.0,67,0.00,,---,0.00,VWS V14.01,2013-06-24 03:06:00,
2013-06-23 23:11:00,78.5,66.6,29.90,SE,145,0.0,7.0,67,0.00,,---,0.00,VWS V14.01,2013-06-24 03:11:00,
2013-06-23 23:16:00,78.5,66.6,29.90,SSE,151,2.0,7.0,67,0.00,,---,0.00,VWS V14.01,2013-06-24 03:16:00,
2013-06-23 23:21:00,78.3,66.4,29.90,ESE,104,1.0,9.0,67,0.00,,---,0.00,VWS V14.01,2013-06-24 03:21:00,
2013-06-23 23:26:00,78.3,66.9,29.90,North,0,0.0,9.0,68,0.00,,---,0.00,VWS V14.01,2013-06-24 03:26:00,
2013-06-23 23:30:00,79.6,67.2,29.90,SSW,192,2.0,8.0,66,0.00,,---,0.00,VWS V14.01,2013-06-24 03:30:00,
2013-06-23 23:31:00,78.1,66.7,29.90,SE,126,1.0,2.0,68,0.00,,---,0.00,VWS V14.01,2013-06-24 03:31:00,
2013-06-23 23:36:00,78.1,66.7,29.90,SW,227,3.0,8.0,68,0.00,,---,0.00,VWS V14.01,2013-06-24 03:36:00,
2013-06-23 23:41:00,77.9,66.5,29.90,SE,124,3.0,8.0,68,0.00,,---,0.00,VWS V14.01,2013-06-24 03:41:00,
2013-06-23 23:46:00,77.9,66.5,29.90,WSW,253,0.0,8.0,68,0.00,,---,0.00,VWS V14.01,2013-06-24 03:46:00,
2013-06-23 23:51:00,77.7,66.3,29.90,East,97,0.0,8.0,68,0.00,,---,0.00,VWS V14.01,2013-06-24 03:51:00,
2013-06-23 23:56:00,77.6,66.2,29.90,East,99,3.0,8.0,68,0.00,,---,0.00,VWS V14.01,2013-06-24 03:56:00,